User: anonymous   Login
Location: Unspecified
(0.0000°N, 0.0000°E)
Time: 00:21:37
(UTC+00:00)
Language:

USA 270 - Orbit

View from above orbital plane
View from above orbital plane
View from above satellite
View from above satellite

Ground track
Ground track

The orbit data is extracted from the following two-line orbital elements,

1 41744U 16052A   16334.39172454 0.00000000  00000-0  00000-0 0    09
2 41744   0.2360  75.9750 0001770 333.5790  19.5181  1.00469531    05
Epoch (UTC): 29 November 2016 09:24:05
Eccentricity: 0.0001770
inclination: 0.2360°
perigee height: 35723 km
apogee height: 35738 km
right ascension of ascending node: 75.9750°
argument of perigee: 333.5790°
revolutions per day: 1.00469531
mean anomaly at epoch: 19.5181°
orbit number at epoch: 0

The dashed part of the orbit path shows where the satellite is in the earth's shadow,  

DLR